Regional Weather Roundup
Issued by NWS

Home | Current Version | Previous Version | Graphics & Text | Print | Product List | Glossary On
Versions: 1 2 3 4 5 6 7 8 9 10 11 12 13 14 15 16 17 18 19 20 21 22 23 24 25 26 27 28 29 30 31 32 33 34 35 36 37 38 39 40 41 42 43 44 45 46 47 48 49 50
545
ASUS45 KBOU 201907
RWRCO

WEATHER ROUNDUP FOR COLORADO
NATIONAL WEATHER SERVICE DENVER/BOULDER CO
100 PM MDT FRI OCT 20 2017

NOTE: "FAIR" INDICATES FEW OR NO CLOUDS BELOW 12000 FEET WITH NO
SIGNIFICANT WEATHER AND/OR OBSTRUCTIONS TO VISIBILITY.

COZ001>005-013-030-031-202000-
...NORTHWEST COLORADO...

CITY           SKY/WX    TMP DP  RH WIND       PRES   REMARKS
CRAIG          FAIR      68  27  21 SW32G40   29.70F
HAYDEN         FAIR      66  29  24 SW26G38   29.72F
MEEKER         FAIR      68  32  26 S25G36    29.72F
RABBIT EARS PA FAIR      46  30  53 SW9G21    29.92F
STEAMBOAT SPGS PTSUNNY   65  29  26 SW20G30   29.72F
WALDEN         NOT AVBL
$$

COZ006>008-011-202000-
...WEST CENTRAL VALLEYS...

CITY           SKY/WX    TMP DP  RH WIND       PRES   REMARKS
GRAND JUNCTION FAIR      74  30  19 SW21G29   29.70F
MONTROSE       FAIR      71  30  21 SW23G31   29.80S
EAGLE          FAIR      65  30  27 SW24G36   29.78F
RIFLE          PTSUNNY   71  32  23 SW13G25   29.72F
DELTA          FAIR      76  30  19 S25G35    29.76F
NUCLA          FAIR      70  30  23 SW22G36   29.88F
$$

COZ017>023-064>068-202000-
...SOUTHWEST COLORADO...

CITY           SKY/WX    TMP DP  RH WIND       PRES   REMARKS
DURANGO        PTSUNNY   64  33  31 W13G22    29.95F
CORTEZ         FAIR      69  33  26 SW10G29   29.90F
PAGOSA SPRINGS FAIR      59  33  37 SW8       29.99F
TELLURIDE      FAIR      58  23  26 W14G23    30.01
WOLF CREEK PAS CLOUDY    34  32  93 SW30G41   30.13F WCI  20
$$

COZ009-010-012-014-032>034-037-058>063-202000-
...CENTRAL COLORADO...

CITY           SKY/WX    TMP DP  RH WIND       PRES   REMARKS
ASPEN          FAIR      63  20  19 SW8G21    29.83F
BUENA VISTA    FAIR      64  24  22 S10G20    29.82F
COPPER MTN     FAIR      48  18  29 S13G22    30.03F
BERTHOUD PASS  FAIR      37  30  75 W10G26    30.04R
COTTONWOOD PAS FAIR      59  18  20 W23G33    29.93F
GUNNISON       FAIR      60  29  30 SW7       29.87F
KREMMLING      FAIR      66  21  18 SW21G35   29.79F
LEADVILLE      FAIR      54  15  21 S14G28    29.91F
MONARCH PASS   FAIR      45  25  45 SW35G41   30.15F
SALIDA         FAIR      66  30  26 S18G26    29.88F
SUNLIGHT       FAIR      48  27  43 SW23G37   29.99F
WILKERSON PASS FAIR      50  21  32 SW16G30   30.01F
$$

COZ069>075-202000-
...SAN LUIS VALLEY/SANGRE DE CRISTO MOUNTAINS...

CITY           SKY/WX    TMP DP  RH WIND       PRES   REMARKS
ALAMOSA        FAIR      64  29  26 SW21G28   29.90F
DEL NORTE      FAIR      61  29  30 W25       29.93F
LA VETA PASS   FAIR      54  28  37 S31G64    30.05F
SAGUACHE       FAIR      64  30  27 S12G18    29.88F
$$

COZ035-036-038>040-202000-
...NORTHERN COLORADO FRONT RANGE...

CITY           SKY/WX    TMP DP  RH WIND       PRES   REMARKS
DENVER INTL AP FAIR      75  30  19 S12       29.62F
DMNS CITY PARK   N/A     75  29  18 SE7G14    29.60F
AURORA         MOSUNNY   74  31  20 S9        29.65F
FRONT RANGE AP MOSUNNY   75  28  17 SE8       29.64F
ERIE MUNI ARPT FAIR      76  29  17 S5        29.65F
BOULDER MUN AP FAIR      75  32  20 E9        29.60F
CENTENNIAL     FAIR      73  28  18 W10G20    29.66F
BROOMFIELD     MOSUNNY   73  30  20 E8        29.64F
FORT COLLINS   FAIR      74  38  27 SE10      29.60F
LONGMONT       FAIR      77  37  23 E6        29.61F
$$

COZ041-046-047-076>085-087-088-202000-
...PIKES PEAK/PALMER DIVIDE AND SOUTHERN FOOTHILLS...

CITY           SKY/WX    TMP DP  RH WIND       PRES   REMARKS
COLO. SPRINGS  FAIR      74  29  19 VRB3      29.71F
A. F. ACADEMY  FAIR      71  24  17 S13G18    29.71F
SCHRIEVER AFB  FAIR      72  28  19 SW16G23   29.71F
CHEYENNE MTN   FAIR      69  29  22 SE16      29.69F
ELLICOTT       FAIR     N/A N/A N/A SW17G26   29.70F
FALCON         FAIR      71  23  16 S10G16    29.75F
FORT CARSON    FAIR      73  31  21 SW18G29   29.68F
LIMON          FAIR      76  28  17 NE5       29.67F
MONUMENT HILL  FAIR      68  28  22 W8        29.75F
CANON CITY     FAIR      77  34  20 W12G22    29.68F
WALSENBURG     FAIR      75  32  20 SW16G24   29.75F
TRINIDAD       FAIR      75  30  19 SW20      29.77F
$$

COZ042>045-048>051-090-091-202000-
...NORTHEAST COLORADO...

CITY           SKY/WX    TMP DP  RH WIND       PRES   REMARKS
GREELEY ARPT   FAIR      75  40  28 SE8       29.60F
AKRON          FAIR      75  31  19 VRB3      29.62F
BURLINGTON     FAIR      74  39  28 S16       29.64F
WRAY           NOT AVBL
YUMA           NOT AVBL
STERLING       NOT AVBL
HOLYOKE        FAIR      73  48  40 SE10      29.61F
FORT MORGAN    FAIR      76  28  17 SE9       29.61F
$$

COZ086-089-092>099-202000-
...SOUTHEAST COLORADO...

CITY           SKY/WX    TMP DP  RH WIND       PRES   REMARKS
PUEBLO         FAIR      78  34  20 S8        29.63F
LA JUNTA       FAIR      81  35  19 SW9G20    29.66F
LAMAR          FAIR      82  35  18 VRB6      29.64F
SPRINGFIELD    NOT AVBL
$$




USA.gov is the U.S. government's official web portal to all federal, state and local government web resources and services.